Weather History for Rantoul, IL

Change the Weather History Date:

Tuesday, September 24, 2013

  Actual Average (KCMI) Record (KCMI)
Temperature  
Mean Temperature 64 °F 62 °F  
Max Temperature 79 °F 75 °F 91 °F (2007)
Min Temperature 48 °F 49 °F 34 °F (2012)
Degree Days  
Heating Degree Days 2 5  
Month to date heating degree days 46  
Since 1 July heating degree days 55  
Cooling Degree Days 0 2  
Month to date cooling degree days 88  
Year to date cooling degree days 915  
Growing Degree Days 14 (Base 50)    
Moisture  
Dew Point 50 °F    
Average Humidity 64    
Maximum Humidity 89    
Minimum Humidity 34    
Precipitation  
Precipitation 0.00 in 0.10 in 0.53 in (2000)
Month to date precipitation 2.66  
Year to date precipitation 29.94  
Sea Level Pressure  
Sea Level Pressure 29.97 in    
Wind  
Wind Speed 6 mph (East)    
Max Wind Speed 10 mph    
Max Gust Speed -    
Visibility 10 miles    
Events      
T = Trace of Precipitation, MM = Missing Value Source: NWS Daily Summary

Daily Weather History Graph

Daily Weather History Graph

Search for Another Location

Airport:

Trip Planner

Search our weather history database for the weather conditions in past years. The results will help you decide how hot, cold, wet, or windy it might be!

Date:

Astronomy

Sep. 24, 2013 Rise Set
Actual Time 6:42 AM CDT 6:45 PM CDT
Civil Twilight 6:15 AM CDT 7:13 PM CDT
Nautical Twilight 5:43 AM CDT 7:44 PM CDT
Astronomical Twilight 5:11 AM CDT 8:16 PM CDT
Moon 10:02 PM CDT (9/24) 11:57 AM CDT (9/24)
Length of Visible Light 12h 57m
Length of Day
12h 03m
Waning Gibbous, 73% of the Moon is Illuminated
Sep 24
Waning Gibbous
Sep 26
Last Quarter
Oct 4
New
Oct 11
First Quarter
Oct 18
Full

Hourly Weather History & Observations

Time (CDT) Temp. Dew Point Humidity Pressure Visibility Wind Dir Wind Speed Gust Speed Precip Events Conditions
12:15 AM 55.8 °F 46.9 °F 72% 30.02 in 10.0 mi East 5.8 mph - N/A   Clear
12:35 AM 55.6 °F 46.9 °F 73% 30.02 in 10.0 mi East 6.9 mph - N/A   Clear
12:55 AM 53.8 °F 46.4 °F 76% 30.02 in 10.0 mi ESE 4.6 mph - N/A   Clear
1:15 AM 53.4 °F 46.6 °F 78% 30.02 in 10.0 mi East 3.5 mph - N/A   Clear
1:35 AM 52.0 °F 46.4 °F 81% 30.03 in 10.0 mi East 4.6 mph - N/A   Clear
1:55 AM 51.8 °F 46.4 °F 82% 30.03 in 10.0 mi East 4.6 mph - N/A   Clear
2:35 AM 52.3 °F 46.6 °F 81% 30.04 in 10.0 mi Calm Calm - N/A   Clear
2:55 AM 51.6 °F 45.9 °F 81% 30.03 in 10.0 mi Calm Calm - N/A   Clear
3:15 AM 50.4 °F 45.7 °F 84% 30.03 in 10.0 mi East 4.6 mph - N/A   Clear
3:35 AM 50.0 °F 45.5 °F 85% 30.03 in 10.0 mi ENE 5.8 mph - N/A   Clear
3:55 AM 50.2 °F 45.7 °F 85% 30.03 in 10.0 mi ENE 5.8 mph - N/A   Clear
4:15 AM 49.6 °F 45.5 °F 86% 30.04 in 10.0 mi ENE 4.6 mph - N/A   Clear
4:35 AM 49.3 °F 45.5 °F 87% 30.04 in 10.0 mi ENE 4.6 mph - N/A   Clear
4:55 AM 49.3 °F 45.5 °F 87% 30.04 in 10.0 mi East 5.8 mph - N/A   Clear
5:15 AM 48.7 °F 45.1 °F 87% 30.04 in 10.0 mi East 5.8 mph - N/A   Clear
5:35 AM 48.7 °F 45.3 °F 88% 30.04 in 10.0 mi East 4.6 mph - N/A   Clear
5:55 AM 48.6 °F 45.3 °F 89% 30.03 in 10.0 mi East 5.8 mph - N/A   Clear
6:15 AM 49.3 °F 45.7 °F 87% 30.03 in 10.0 mi East 3.5 mph - N/A   Clear
6:35 AM 49.1 °F 45.3 °F 87% 30.04 in 10.0 mi East 4.6 mph - N/A   Clear
6:55 AM 49.3 °F 45.9 °F 88% 30.04 in 10.0 mi East 4.6 mph - N/A   Clear
7:15 AM 49.1 °F 45.7 °F 88% 30.04 in 10.0 mi East 4.6 mph - N/A   Clear
7:35 AM 50.9 °F 46.9 °F 86% 30.04 in 10.0 mi East 4.6 mph - N/A   Clear
7:55 AM 52.5 °F 47.8 °F 84% 30.03 in 10.0 mi East 5.8 mph - N/A   Clear
8:15 AM 54.5 °F 48.7 °F 81% 30.03 in 10.0 mi East 6.9 mph - N/A   Clear
8:35 AM 56.1 °F 49.1 °F 77% 30.03 in 10.0 mi ESE 8.1 mph - N/A   Clear
8:55 AM 57.7 °F 50.0 °F 75% 30.03 in 10.0 mi ESE 6.9 mph - N/A   Clear
9:15 AM 60.1 °F 50.9 °F 72% 30.03 in 10.0 mi ESE 8.1 mph - N/A   Clear
9:35 AM 61.7 °F 50.7 °F 67% 30.02 in 10.0 mi SE 8.1 mph - N/A   Clear
9:55 AM 64.0 °F 51.6 °F 64% 30.01 in 10.0 mi East 8.1 mph - N/A   Clear
10:15 AM 65.8 °F 51.8 °F 60% 30.01 in 10.0 mi ESE 6.9 mph - N/A   Clear
10:35 AM 67.6 °F 52.3 °F 58% 30.00 in 10.0 mi East 8.1 mph - N/A   Clear
10:55 AM 69.4 °F 52.3 °F 54% 29.99 in 10.0 mi East 6.9 mph - N/A   Clear
11:15 AM 71.4 °F 52.3 °F 51% 29.98 in 10.0 mi East 5.8 mph - N/A   Clear
11:35 AM 72.7 °F 51.6 °F 47% 29.98 in 10.0 mi ESE 6.9 mph - N/A   Clear
11:55 AM 73.6 °F 50.5 °F 44% 29.98 in 10.0 mi ESE 9.2 mph - N/A   Clear
12:15 PM 74.7 °F 50.7 °F 43% 29.97 in 10.0 mi ESE 9.2 mph - N/A   Clear
12:55 PM 75.6 °F 48.7 °F 39% 29.96 in 10.0 mi East 8.1 mph - N/A   Clear
1:15 PM 76.1 °F 48.0 °F 37% 29.95 in 10.0 mi ESE 9.2 mph - N/A   Clear
1:35 PM 77.2 °F 46.4 °F 34% 29.94 in 10.0 mi ESE 9.2 mph - N/A   Clear
1:55 PM 77.4 °F 49.5 °F 37% 29.93 in 10.0 mi ESE 6.9 mph - N/A   Clear
2:15 PM 78.3 °F 50.2 °F 37% 29.94 in 10.0 mi SE 4.6 mph - N/A   Clear
2:35 PM 76.6 °F 51.6 °F 42% 29.93 in 10.0 mi ESE 8.1 mph - N/A   Scattered Clouds
2:55 PM 77.9 °F 51.3 °F 39% 29.91 in 10.0 mi East 5.8 mph - N/A   Scattered Clouds
3:15 PM 79.5 °F 51.1 °F 37% 29.90 in 10.0 mi ESE 8.1 mph - N/A   Clear
3:35 PM 79.7 °F 52.5 °F 39% 29.90 in 10.0 mi ESE 9.2 mph - N/A   Clear
3:55 PM 78.3 °F 52.2 °F 40% 29.91 in 10.0 mi SE 10.4 mph - N/A   Clear
4:15 PM 78.1 °F 52.2 °F 40% 29.91 in 10.0 mi SSE 6.9 mph - N/A   Clear
4:35 PM 77.4 °F 52.2 °F 41% 29.91 in 10.0 mi SSE 4.6 mph - N/A   Scattered Clouds
4:55 PM 77.5 °F 52.7 °F 42% 29.90 in 10.0 mi SE 5.8 mph - N/A   Scattered Clouds
5:15 PM 77.2 °F 54.0 °F 44% 29.90 in 10.0 mi ESE 4.6 mph - N/A   Scattered Clouds
5:35 PM 77.0 °F 54.5 °F 46% 29.91 in 10.0 mi ESE 3.5 mph - N/A   Mostly Cloudy
5:55 PM 76.5 °F 55.6 °F 48% 29.91 in 10.0 mi East 3.5 mph - N/A   Mostly Cloudy
6:15 PM 75.6 °F 55.6 °F 50% 29.90 in 10.0 mi East 3.5 mph - N/A   Scattered Clouds
6:35 PM 74.7 °F 56.8 °F 54% 29.90 in 10.0 mi ENE 5.8 mph - N/A   Mostly Cloudy
6:55 PM 72.5 °F 57.2 °F 59% 29.90 in 10.0 mi East 5.8 mph - N/A   Scattered Clouds
7:15 PM 71.6 °F 56.5 °F 59% 29.90 in 10.0 mi East 4.6 mph - N/A   Clear
7:35 PM 70.3 °F 56.3 °F 61% 29.90 in 10.0 mi East 3.5 mph - N/A   Clear
7:55 PM 69.6 °F 56.3 °F 63% 29.90 in 10.0 mi East 4.6 mph - N/A   Clear
8:15 PM 68.2 °F 56.5 °F 66% 29.91 in 10.0 mi East 4.6 mph - N/A   Clear
8:35 PM 68.0 °F 54.9 °F 63% 29.91 in 10.0 mi East 8.1 mph - N/A   Clear
8:55 PM 66.4 °F 53.2 °F 63% 29.91 in 10.0 mi ENE 6.9 mph - N/A   Clear
9:15 PM 65.7 °F 52.2 °F 62% 29.91 in 10.0 mi ENE 8.1 mph - N/A   Clear
9:35 PM 64.8 °F 51.8 °F 63% 29.91 in 10.0 mi ENE 8.1 mph - N/A   Clear
9:55 PM 64.2 °F 50.9 °F 62% 29.91 in 10.0 mi East 6.9 mph - N/A   Clear
10:15 PM 63.3 °F 50.9 °F 64% 29.91 in 10.0 mi ENE 6.9 mph - N/A   Clear
10:35 PM 62.8 °F 50.5 °F 64% 29.91 in 10.0 mi East 5.8 mph - N/A   Clear
10:55 PM 62.1 °F 50.4 °F 65% 29.91 in 10.0 mi ENE 6.9 mph - N/A   Clear
11:15 PM 61.9 °F 50.0 °F 65% 29.90 in 10.0 mi ENE 6.9 mph - N/A   Clear
11:35 PM 61.7 °F 50.0 °F 65% 29.90 in 10.0 mi ENE 6.9 mph - N/A   Clear
11:55 PM 61.5 °F 49.5 °F 65% 29.91 in 10.0 mi ENE 6.9 mph - N/A   Clear